[ ตารางข้อมูล ] [ Min-Max ] [ วันนี้2 ] [ วันนี้4 ] [ เทียบ-A 3วัน ] [ เทียบ-B 4วัน ]   

วันนี้4   [ ◀ ช่วงเก่ากว่า ] [ ช่วงที่ 7 ] [ ช่วงใหม่กว่า ▶ ] [ ล่าสุด ]    [ 3 ชั่วโมง ] [ 6 ชั่วโมง ] [ 12 ชั่วโมง ] [ 24 ชั่วโมง ]   วันนี้4

อุณภูมิในตู้ Knockdown4529  ราย 24 ชั่วโมง  ที่วัดได้ ในช่วงวันเวลา 24/08/2026 (09:52) ถึง 25/08/2026 (09:52) 
ความชื้นในตู้ Knockdown4529  ราย 24 ชั่วโมง  ที่วัดได้ ในช่วงวันเวลา 24/08/2026 (09:52) ถึง 25/08/2026 (09:52) 
การใช้ไฟฟ้าในตู้ Knockdown4529  ราย 24 ชั่วโมง  ที่วัดได้ ในช่วงวันเวลา 24/08/2026 (09:52) ถึง 25/08/2026 (09:52) 

  DS18B20SHTC3PZEM-004TWiFi 
IDDate d/m/Y & Timedata1
สูง
data2
ต่ำ
data3
นอก
temp
pcb
hum
pcb
VoltAmpWattrssiTime
 15834  25/08/2026 09:51:13  29.9  29.6  29.4  31.1  64.8  233.2  0.04  4.6  -78  09:51 
 15833  25/08/2026 09:46:29  29.9  29.5  29.4  31.0  64.8  232.2  0.04  4.5  -79  09:46 
 15832  25/08/2026 09:41:44  29.8  29.5  29.4  30.8  64.9  233.4  0.03  4.5  -81  09:41 
 15831  25/08/2026 09:36:59  29.8  29.5  29.2  30.8  64.9  232.9  0.03  4.5  -78  09:36 
 15830  25/08/2026 09:32:16  29.8  29.5  29.4  30.9  65.0  233.8  0.03  4.5  -82  09:32 
 15829  25/08/2026 09:27:31  29.8  29.4  29.3  30.7  65.0  233.5  0.04  4.5  -80  09:27 
 15828  25/08/2026 09:22:47  29.7  29.4  29.2  30.7  65.2  233.5  0.04  4.5  -80  09:22 
 15827  25/08/2026 09:18:04  29.7  29.4  29.2  31.0  65.2  233.6  0.04  4.5  -78  09:18 
 15826  25/08/2026 09:13:21  29.6  29.4  29.2  30.6  65.3  232.1  0.04  4.5  -79  09:13 
 15825  25/08/2026 09:08:37  29.6  29.4  29.3  30.6  65.5  233.5  0.04  4.5  -81  09:08 
 15824  25/08/2026 09:03:53  29.6  29.4  29.2  30.5  65.7  232.7  0.04  4.5  -79  09:03 
 15823  25/08/2026 08:59:10  29.6  29.4  29.0  30.4  65.7  232.1  0.04  4.5  -81  08:59 
 15822  25/08/2026 08:54:27  29.6  29.4  28.9  30.5  65.8  232.5  0.04  4.5  -81  08:54 
 15821  25/08/2026 08:49:43  29.6  29.4  28.9  30.2  65.9  232.2  0.04  4.5  -81  08:49 
 15820  25/08/2026 08:44:59  29.5  29.3  28.7  30.4  66.0  232.1  0.04  4.5  -81  08:44 
 15819  25/08/2026 08:40:16  29.5  29.4  28.6  30.4  65.9  231.4  0.04  4.5  -81  08:40 
 15818  25/08/2026 08:35:33  29.5  29.3  28.4  30.5  66.0  231.8  0.04  4.5  -81  08:35 
 15817  25/08/2026 08:30:50  29.5  29.3  28.4  30.5  66.1  231.0  0.04  4.5  -81  08:30 
 15816  25/08/2026 08:26:05  29.5  29.3  28.4  30.4  66.0  232.8  0.04  4.5  -82  08:26 
 15815  25/08/2026 08:21:22  29.5  29.3  28.2  30.5  66.0  230.7  0.04  4.5  -80  08:21 
 15814  25/08/2026 08:16:39  29.5  29.3  28.2  30.4  66.0  232.6  0.04  4.5  -81  08:16 
 15813  25/08/2026 08:11:52  29.4  29.3  28.1  30.2  66.0  231.0  0.04  4.5  -78  08:11 
 15812  25/08/2026 08:07:09  29.4  29.3  28.0  30.2  66.3  233.7  0.04  4.5  -79  08:07 
 15811  25/08/2026 08:02:25  29.4  29.3  28.0  30.3  66.5  233.2  0.04  4.5  -80  08:02 

Data every 5 minute.


ใช้เวลาประมวลผล 0.02285 วินาที